Location: Knowlton
(51.2333°N, 1.2667°E)
Time: 03:11:16
(UTC+00:00)

SL-08 ROCKET BODY - Pass Details

Date: 18 April 2021
Orbit: 896 x 963 km, 82.9° (Epoch: 06 May)

Event Time Altitude Azimuth Distance (km) Brightness Sun altitude
Rises 22:17:55 0° 349° (N) 3,634 8.8 -24.2°
Reaches altitude 10° 22:20:26 10° 349° (N) 2,676 7.8 -24.4°
Maximum altitude 22:26:33 85° 264° (W) 943 4.3 -24.8°
Enters shadow 22:27:52 58° 180° (S) 1,081 4.4 -24.9°
